Oak Ridge, TN

1:36 PM EDT on March 29, 2017 (GMT -0400)
Oak Ridge

Weather History for KOQT - February, 2013

Change the Weather History Date:

Sunday, February 10, 2013

  Actual Average (KTYS) Record (KTYS)
Temperature  
Mean Temperature 49 °F -  
Max Temperature 61 °F 49 °F 73 °F (1932)
Min Temperature 37 °F 26 °F -3 °F (1899)
Degree Days  
Heating Degree Days 16    
Moisture  
Dew Point 36 °F    
Average Humidity 71    
Maximum Humidity 93    
Minimum Humidity 23    
Precipitation  
Precipitation 0.30 in - - ()
Sea Level Pressure  
Sea Level Pressure 30.16 in    
Wind  
Wind Speed 1 mph (SSW)    
Max Wind Speed 10 mph    
Max Gust Speed -    
Visibility 9 miles    
Events Rain    
Averages and records for this station are not official NWS values.
T = Trace of Precipitation, MM = Missing Value Source: NWS Daily Summary

Daily Weather History Graph

Daily Weather History Graph

Search for Another Location

Airport or City:

Trip Planner

Search our weather history database for the weather conditions in past years. The results will help you decide how hot, cold, wet, or windy it might be!

Date:

Astronomy

Feb. 10, 2013 Rise Set
Actual Time 7:29 AM EST 6:13 PM EST
Civil Twilight 7:02 AM EST 6:40 PM EST
Nautical Twilight 6:32 AM EST 7:10 PM EST
Astronomical Twilight 6:02 AM EST 7:40 PM EST
Moon 7:20 AM EST (2/10) 7:00 PM EST (2/10)
Length of Visible Light 11h 37m
Length of Day
10h 44m
New Moon, 0% of the Moon is Illuminated
Feb 10
New Moon
Feb 17
First Quarter
Feb 25
Full
Mar 4
Last Quarter
Mar 11
New

Hourly Weather History & Observations

Time (EST) Temp. Dew Point Humidity Pressure Visibility Wind Dir Wind Speed Gust Speed Precip Events Conditions
12:53 AM 37.9 °F 28.9 °F 70% 30.27 in 10.0 mi Calm Calm - N/A   Clear
1:53 AM 37.9 °F 30.0 °F 73% 30.26 in 10.0 mi Calm Calm - N/A   Clear
2:53 AM 39.0 °F 30.0 °F 70% 30.26 in 10.0 mi Calm Calm - N/A   Clear
3:53 AM 37.9 °F 30.0 °F 73% 30.25 in 10.0 mi Calm Calm - N/A   Clear
4:53 AM 39.0 °F 30.9 °F 73% 30.26 in 10.0 mi Calm Calm - N/A   Clear
5:53 AM 37.9 °F 30.9 °F 76% 30.26 in 10.0 mi Calm Calm - N/A   Clear
6:53 AM 37.9 °F 32.0 °F 79% 30.27 in 10.0 mi Calm Calm - N/A   Clear
7:53 AM 37.9 °F 32.0 °F 79% 30.27 in 10.0 mi Calm Calm - N/A   Clear
8:53 AM 39.9 °F 32.0 °F 73% 30.28 in 10.0 mi Calm Calm - N/A   Clear
9:53 AM 44.1 °F 27.0 °F 51% 30.27 in 10.0 mi Calm Calm - N/A   Clear
10:53 AM 48.9 °F 28.0 °F 44% 30.25 in 10.0 mi Calm Calm - N/A   Clear
11:53 AM 53.1 °F 26.1 °F 35% 30.21 in 10.0 mi Calm Calm - N/A   Partly Cloudy
12:53 PM 59.0 °F 24.1 °F 26% 30.14 in 10.0 mi South 10.4 mph - N/A   Clear
1:53 PM 61.0 °F 23.0 °F 23% 30.10 in 10.0 mi SSW 10.4 mph - N/A   Clear
2:53 PM 60.1 °F 26.1 °F 27% 30.09 in 10.0 mi Variable 5.8 mph - N/A   Mostly Cloudy
3:53 PM 52.0 °F 37.9 °F 59% 30.09 in 8.0 mi Calm Calm - 0.01 in Rain Light Rain
4:53 PM 50.0 °F 46.0 °F 86% 30.11 in 4.0 mi Calm Calm - 0.06 in Rain Rain
5:38 PM 48.2 °F 44.6 °F 87% 30.10 in 2.5 mi Calm Calm - 0.08 in Rain Rain
5:53 PM 48.0 °F 44.1 °F 86% 30.11 in 1.8 mi Calm Calm - 0.13 in Rain Rain
6:01 PM 46.4 °F 44.6 °F 93% 30.08 in 3.0 mi Calm Calm - 0.02 in Rain Rain
6:53 PM 46.9 °F 45.0 °F 93% 30.09 in 9.0 mi Calm Calm - 0.10 in Rain Light Rain
7:53 PM 46.9 °F 45.0 °F 93% 30.11 in 10.0 mi West 3.5 mph - 0.00 in   Overcast
8:34 PM 46.4 °F 44.6 °F 93% 30.05 in 10.0 mi Calm Calm - N/A   Mostly Cloudy
8:53 PM 46.9 °F 45.0 °F 93% 30.06 in 10.0 mi Calm Calm - N/A   Overcast
9:53 PM 48.0 °F 45.0 °F 89% 30.04 in 10.0 mi Calm Calm - N/A   Overcast
10:53 PM 48.0 °F 45.0 °F 89% 30.01 in 8.0 mi Calm Calm - N/A   Scattered Clouds
11:53 PM 48.0 °F 46.0 °F 93% 30.01 in 8.0 mi South 3.5 mph - N/A   Overcast